Dewpoint
18 10 10 10 13 11 10 10 10 14 21 20 18 20 26 33 32 26 26 31 38 45 47 51 53 54 56 56 55 55 55 59 55 50 49 49 48 50 48 49 56 54 53 55
14 8 13 12 12 11 9 10 13 20 20 21 21 24 25 33 31 31 33 35 40 45 48 51 53 54 53 53 53 53 55 58 56 53 54 51 50 49 48 47 56 55 54 54
15 17 14 10 8 10 13 14 16 18 23 23 20 20 22 33 35 35 38 41 43 45 48 51 52 52 49 49 49 52 55 57 57 58 53 55 53 51 45 46 47 49 53 53
17 17 13 15 14 15 17 17 16 17 19 16 24 20 22 33 36 37 39 42 43 46 48 50 50 49 46 46 46 51 54 56 55 57 56 58 51 49 48 47 46 51 54 54
21 17 16 17 17 18 18 21 20 20 20 21 19 19 21 31 31 36 40 42 43 45 47 47 46 43 44 44 46 49 52 54 54 54 55 50 53 48 47 47 55 57 55 54
21 22 20 20 23 21 21 20 21 24 22 20 20 18 17 26 29 33 38 40 43 44 44 43 43 44 44 44 44 48 50 51 52 52 53 55 54 54 49 50 49 47 47 48
24 23 23 23 20 23 24 25 22 22 22 25 25 19 19 27 29 26 35 39 41 42 42 42 40 39 41 43 45 46 46 49 50 50 50 51 54 55 55 51 46 50 48 49
22 22 25 26 24 25 27 27 20 21 19 18 22 20 26 30 31 31 35 36 39 41 40 39 39 40 41 43 45 46 46 48 49 49 49 49 51 45 47 50 51 49 51 51
26 25 26 24 25 25 26 25 29 28 24 20 18 23 29 31 32 33 33 37 38 39 39 39 40 42 43 45 46 46 45 47 47 47 49 51 49 51 51 53 52 52 52 51
29 29 27 27 27 26 26 27 27 26 27 23 18 19 26 30 31 32 33 34 35 36 39 39 40 42 44 49 46 50 48 47 46 45 45 45 48 50 51 50 50 51 52 51
32 33 28 29 29 26 28 26 28 29 27 23 19 21 32 33 32 33 31 34 36 37 36 37 38 40 41 41 42 46 47 46 44 44 46 47 46 48 50 49 51 51 50 50
38 39 32 29 30 29 29 29 31 28 28 28 29 29 33 33 31 33 33 33 34 36 36 35 35 37 38 38 42 44 47 45 45 44 45 45 50 51 49 49 49 49 48 49
42 36 33 30 32 32 29 27 28 31 33 29 25 24 30 30 32 33 34 34 35 35 34 34 35 36 39 40 43 43 46 45 43 43 45 49 49 48 49 49 48 48 48 47
45 40 36 30 29 31 31 28 27 30 33 28 24 26 26 29 33 33 34 34 33 33 34 35 35 36 39 44 44 45 45 43 42 44 47 48 48 48 47 47 47 47 46 46
41 38 35 32 30 28 27 26 25 26 27 29 27 25 27 35 35 34 34 33 31 31 35 35 36 37 37 42 45 44 43 43 44 45 46 47 47 46 47 47 47 46 47 46
40 38 36 33 29 28 26 21 21 22 26 27 26 27 37 36 34 33 32 32 34 35 35 35 37 37 39 41 43 42 43 44 45 46 45 45 46 46 47 47 46 48 48 48
40 40 37 32 31 27 25 27 26 25 25 28 29 33 33 34 32 33 34 38 38 38 37 37 38 39 38 39 43 43 43 44 45 44 44 43 44 46 45 45 46 46 48 48
41 40 36 38 33 32 31 29 29 28 28 31 32 34 33 33 33 34 41 41 39 37 38 39 40 40 40 40 44 44 43 44 44 44 44 43 44 44 45 46 47 48 49 47
41 39 40 39 37 31 29 34 31 30 30 36 35 36 33 33 34 38 41 40 38 40 40 41 42 42 42 42 42 44 44 44 44 43 43 43 44 44 45 45 47 49 49 48
38 41 40 34 32 27 39 36 35 33 30 38 37 33 34 35 35 36 41 39 41 41 42 43 42 42 42 42 45 44 44 44 43 43 43 44 45 45 45 47 47 49 49 48
36 36 33 33 35 31 38 36 36 31 38 40 35 35 39 40 41 41 40 39 41 41 42 42 42 42 44 45 45 44 44 42 43 44 43 44 44 43 45 49 49 49 48 49
33 35 33 33 32 31 38 35 35 41 42 37 37 39 41 41 41 40 39 40 40 41 42 42 42 43 45 44 45 44 44 45 44 43 43 43 45 45 41 48 49 49 49 47
33 40 44 38 42 43 41 40 40 40 38 38 40 41 41 41 40 39 40 40 41 41 42 43 43 43 45 44 44 41 43 43 43 41 41 41 41 43 45 45 48 42 45 43
36 37 34 35 34 33 33 34 37 39 40 41 41 41 41 40 39 40 39 40 41 42 42 43 43 42 41 41 39 39 40 42 41 40 40 40 40 43 43 43 44 40 39 39
35 35 28 31 29 34 36 41 41 40 40 40 40 40 39 40 39 39 40 40 42 42 43 43 43 40 38 38 38 39 41 42 42 43 42 43 39 45 46 43 42 41 44 42
31 30 32 35 39 37 39 42 42 41 40 40 39 39 39 39 40 41 41 42 42 43 43 43 40 40 39 38 39 41 42 43 46 45 40 36 39 38 48 47 44 40 41 40
Lifted_Index
4 3 2 2 1 1 0 -0 -0 0 2 2 1 1 1 1 2 2 2 1 0 -0 -1 -1 -1 -0 0 1 2 3 4 3 3 4 4 4 4 4 4 4 3 3 3 3
3 2 2 2 2 1 1 -0 -0 1 2 2 2 1 1 1 1 1 1 0 -0 -1 -1 -1 -1 -0 1 2 3 3 3 3 3 3 3 4 4 4 4 4 3 3 3 3
2 2 3 3 2 2 1 0 0 1 2 2 2 1 1 1 1 1 0 -0 -1 -1 -1 -1 -1 0 2 3 4 4 3 3 3 3 3 3 4 4 4 4 4 4 4 4
2 2 3 2 2 1 1 1 1 2 2 1 1 0 0 -0 0 0 -0 -1 -1 -1 -1 -1 0 2 3 4 4 3 3 3 3 3 4 4 4 4 4 4 4 4 3 3
2 3 3 2 2 2 1 2 2 2 1 1 0 -0 -0 -1 -0 0 -0 -0 -1 -1 -0 0 1 3 3 4 4 3 3 3 4 4 4 4 4 4 4 4 3 3 3 3
2 2 3 2 2 2 2 2 2 1 1 0 0 -0 -0 -0 -0 0 0 -0 0 0 1 1 2 3 3 3 3 3 3 4 4 4 4 4 4 4 4 4 4 4 4 4
1 1 2 2 2 2 1 1 1 0 0 0 0 0 -0 -0 0 1 0 0 1 1 1 2 3 3 3 3 3 3 4 4 4 4 4 4 4 3 3 4 4 5 5 5
-0 0 1 2 2 1 0 0 -0 -0 -0 -0 0 0 0 0 1 1 1 1 1 1 2 2 2 3 3 3 3 3 4 4 4 4 4 4 4 4 4 4 5 5 5 6
-0 -0 1 1 2 1 0 -0 -0 -0 -0 -0 -0 -0 0 1 2 2 2 1 1 1 2 2 2 2 2 3 3 3 3 3 3 3 4 4 4 4 4 5 5 5 6 6
0 0 0 1 1 1 0 -0 -0 -0 -1 -1 -0 -0 0 1 1 2 2 2 2 2 2 2 2 2 3 3 3 3 2 3 3 3 4 4 4 4 5 5 5 6 6 7
0 -0 -0 0 1 0 0 -0 -0 -0 -0 -1 -1 -0 0 1 2 2 2 2 2 2 2 2 2 3 3 3 3 2 2 2 3 4 4 4 5 5 5 6 6 6 7 7
0 -0 -0 -0 0 0 1 0 1 1 0 -0 -1 -0 1 1 2 2 2 2 2 3 3 3 3 3 3 3 2 2 2 2 3 4 5 5 5 5 6 6 6 7 7 8
0 0 -0 -0 -0 0 1 1 1 1 1 1 -0 -0 0 1 2 3 2 3 3 3 3 3 3 3 2 2 2 2 3 3 4 5 5 6 6 6 7 7 7 8 8 8
1 1 0 -0 -0 0 1 1 2 2 1 1 0 -0 0 1 2 3 3 3 4 4 4 4 3 3 2 3 3 3 4 5 6 6 6 6 7 7 7 7 8 8 8 8
1 1 1 0 0 1 1 2 2 2 1 1 1 1 1 1 2 3 3 4 4 4 4 3 3 3 3 4 4 5 6 6 7 7 7 7 8 8 7 7 8 8 8 8
1 1 1 1 1 2 2 2 2 2 1 1 1 1 1 2 3 3 4 4 3 3 3 4 4 5 5 6 7 7 7 7 7 7 8 8 8 8 7 7 7 7 7 7
1 1 1 1 1 2 2 2 2 2 2 1 1 1 2 3 3 4 4 3 3 3 4 4 5 6 8 9 9 9 9 8 8 8 8 8 7 7 7 7 7 7 7 6
1 1 1 1 1 1 2 1 1 1 1 1 1 2 2 3 4 4 3 3 3 3 4 5 6 8 9 10 10 9 9 9 8 8 7 7 7 7 7 6 6 6 6 6
2 2 1 1 1 1 1 1 1 1 1 2 2 3 3 4 3 3 2 3 3 4 5 6 7 8 9 9 9 9 9 8 7 7 7 6 6 6 6 6 6 6 6 6
2 1 1 1 0 -0 -0 1 1 1 1 2 3 3 4 4 3 2 2 3 4 5 6 7 7 7 8 8 8 8 8 7 7 6 6 6 6 6 6 6 6 6 6 6
1 1 1 1 0 -0 0 1 1 1 2 3 4 4 4 3 3 2 3 4 5 6 7 7 7 7 7 8 8 7 7 6 6 6 6 6 6 6 6 6 6 6 6 6
1 0 -0 -0 -0 -0 0 1 2 2 3 3 4 4 4 3 3 3 4 5 6 7 7 7 7 7 7 7 7 6 6 6 5 5 5 5 5 5 5 5 5 6 6 6
1 0 -0 -0 -0 0 1 2 3 3 4 4 4 4 4 3 3 4 5 6 7 7 7 7 7 7 7 7 6 6 5 5 5 5 5 5 5 5 5 5 5 6 7 7
1 1 1 1 1 2 3 3 4 4 4 4 4 4 4 4 4 5 6 7 7 7 7 7 7 7 7 6 6 6 5 5 5 5 5 5 5 4 5 5 6 7 8 8
2 2 2 2 2 3 3 3 4 4 4 4 5 5 5 6 6 7 7 7 7 7 7 7 7 7 6 6 6 5 5 5 4 4 4 5 4 4 5 5 6 7 8 9
2 2 2 2 2 2 3 3 4 4 5 5 5 6 6 7 7 7 7 7 7 7 8 7 7 6 6 6 5 5 5 4 4 4 5 5 5 4 4 5 6 7 8 9